Lake Somerville Weather Center

Moon Phase Calendar



Lake Somerville Water Level
Online Cameras

 


      

Current Conditions in Somerville
5/16/2021 6:14:49 AM

69°F
Feels Like 70
Clouds
Humidity
95%
Pressure
29.97"
Wind
2 mph (ESE)
Dew Point
68°F
UV Index
0/10 (Low)
Visibility
6 mi

Hourly Forecast

Date & Time Sun, May 16
6:00 AM
Sun, May 16
7:00 AM
Sun, May 16
8:00 AM
Sun, May 16
9:00 AM
Sun, May 16
10:00 AM
Sun, May 16
11:00 AM
Sun, May 16
12:00 PM
Sun, May 16
1:00 PM
Sun, May 16
2:00 PM
Sun, May 16
3:00 PM
Sun, May 16
4:00 PM
Sun, May 16
5:00 PM
Sun, May 16
6:00 PM
Sun, May 16
7:00 PM
Sun, May 16
8:00 PM
Sun, May 16
9:00 PM
Sun, May 16
10:00 PM
Sun, May 16
11:00 PM
Mon, May 17
12:00 AM
Mon, May 17
1:00 AM
Mon, May 17
2:00 AM
Mon, May 17
3:00 AM
Mon, May 17
4:00 AM
Mon, May 17
5:00 AM
Mon, May 17
6:00 AM
Mon, May 17
7:00 AM
Mon, May 17
8:00 AM
Mon, May 17
9:00 AM
Mon, May 17
10:00 AM
Mon, May 17
11:00 AM
Mon, May 17
12:00 PM
Mon, May 17
1:00 PM
Mon, May 17
2:00 PM
Mon, May 17
3:00 PM
Mon, May 17
4:00 PM
Mon, May 17
5:00 PM
Mon, May 17
6:00 PM
Mon, May 17
7:00 PM
Mon, May 17
8:00 PM
Mon, May 17
9:00 PM
Mon, May 17
10:00 PM
Mon, May 17
11:00 PM
Tue, May 18
12:00 AM
Tue, May 18
1:00 AM
Tue, May 18
2:00 AM
Tue, May 18
3:00 AM
Tue, May 18
4:00 AM
Tue, May 18
5:00 AM
Condition
Rain

Clouds

Clouds

Rain

Rain

Rain

Rain

Rain

Rain

Rain

Rain

Rain

Rain

Rain

Rain

Rain

Rain

Rain

Clouds

Clouds

Clouds

Clouds

Clouds

Clouds

Clouds

Clouds

Clouds

Clouds

Rain

Rain

Rain

Rain

Rain

Rain

Rain

Rain

Rain

Rain

Clear

Clear

Clear

Clear

Clear

Clouds

Clouds

Rain

Clouds

Clouds
Temperature 69°F69°F69°F70°F71°F70°F70°F72°F77°F78°F78°F77°F77°F76°F73°F72°F71°F71°F71°F71°F71°F71°F71°F71°F71°F71°F72°F75°F77°F79°F82°F83°F84°F84°F84°F84°F83°F81°F78°F76°F75°F74°F73°F72°F73°F74°F74°F74°F
Feels Like 70°F70°F70°F71°F72°F71°F71°F73°F78°F79°F79°F79°F78°F77°F75°F73°F73°F73°F72°F72°F72°F72°F72°F72°F72°F72°F74°F76°F79°F79°F87°F89°F91°F91°F91°F91°F90°F86°F79°F77°F76°F75°F74°F74°F74°F75°F75°F75°F
Cloudiness 100%100%100%100%100%100%100%100%84%92%91%93%94%93%69%78%85%81%73%70%53%56%59%61%63%65%85%84%83%81%76%71%40%41%39%35%31%28%0%0%0%0%0%17%100%100%100%100%
Visibility 6 mi6 mi6 mi6 mi5 mi2 mi6 mi6 mi6 mi5 mi6 mi6 mi6 mi6 mi6 mi6 mi6 mi6 mi6 mi6 mi6 mi6 mi6 mi6 mi6 mi6 mi6 mi6 mi6 mi6 mi6 mi6 mi6 mi6 mi6 mi6 mi6 mi6 mi6 mi6 mi6 mi6 mi6 mi6 mi6 mi6 mi6 mi6 mi
Precipitation 56%57%87%100%97%99%100%100%81%98%100%100%100%100%80%83%78%70%72%72%15%7%4%4%3%4%12%13%25%54%75%90%100%100%100%100%100%100%21%10%2%0%0%0%11%44%40%33%
Humidity 95%94%94%93%91%96%95%92%82%81%81%82%83%85%90%94%96%96%96%97%97%97%97%97%97%97%95%91%86%81%75%72%71%71%71%73%78%81%85%88%90%91%93%96%95%93%92%93%
Dew Point 68°F67°F67°F68°F68°F68°F68°F69°F71°F71°F71°F71°F71°F71°F70°F70°F70°F70°F70°F69°F69°F70°F70°F70°F69°F70°F71°F72°F72°F73°F73°F73°F74°F74°F74°F74°F75°F74°F73°F72°F71°F71°F71°F71°F71°F71°F71°F71°F
Pressure 29.97"29.97"29.97"30"30"29.97"29.94"29.97"29.94"29.91"29.91"29.91"29.88"29.88"29.88"29.88"29.91"29.91"29.91"29.91"29.88"29.88"29.85"29.85"29.85"29.85"29.88"29.88"29.88"29.88"29.88"29.88"29.85"29.83"29.8"29.8"29.8"29.8"29.83"29.83"29.85"29.85"29.88"29.88"29.88"29.85"29.83"29.77"
Wind Speed 10 mph11.4 mph15 mph17.4 mph15.9 mph11.4 mph6.4 mph7.5 mph12 mph13.3 mph12.8 mph13.1 mph13.3 mph13.1 mph11.2 mph10.4 mph10.9 mph12.1 mph12.4 mph13 mph12.7 mph12.2 mph12.6 mph13.2 mph13.3 mph12.9 mph12 mph12.8 mph12.2 mph11.7 mph12.6 mph13.8 mph14.3 mph15 mph14.2 mph13.5 mph13.1 mph13.2 mph12.6 mph12 mph12.6 mph13 mph12.1 mph11.9 mph11.8 mph14.1 mph16 mph18 mph
Wind
Direction
133°
SE
135°
SE
132°
SE
140°
SE
151°
SSE
154°
SSE
158°
SSE
138°
SE
159°
SSE
159°
SSE
161°
SSE
169°
S
174°
S
173°
S
162°
SSE
160°
SSE
155°
SSE
154°
SSE
149°
SSE
154°
SSE
156°
SSE
154°
SSE
151°
SSE
151°
SSE
152°
SSE
151°
SSE
154°
SSE
160°
SSE
176°
S
183°
S
181°
S
179°
S
175°
S
171°
S
171°
S
171°
S
167°
SSE
158°
SSE
155°
SSE
153°
SSE
152°
SSE
149°
SSE
154°
SSE
142°
SE
154°
SSE
163°
SSE
156°
SSE
144°
SE

Daily Forecast

Date High Low Precip. Humidity
Today
May 16

Rain
78 °F
67 °F
100%
92%
Monday
May 17

Rain
84 °F
71 °F
100%
72%
Tuesday
May 18

Rain
84 °F
72 °F
62%
70%
Wednesday
May 19

Rain
83 °F
67 °F
100%
72%
Thursday
May 20

Rain
78 °F
66 °F
100%
79%
Friday
May 21

Rain
83 °F
69 °F
97%
72%
Saturday
May 22

Rain
81 °F
73 °F
100%
78%
Sunday
May 23

Clouds
84 °F
70 °F
14%
66%
Monday
May 24

Rain
84 °F
69 °F
41%
71%
Tuesday
May 25

Rain
85 °F
67 °F
54%
63%
Wednesday
May 26

Clouds
87 °F
71 °F
44%
61%
Thursday
May 27

Clear
88 °F
68 °F
0%
62%
Friday
May 28

Rain
86 °F
72 °F
21%
65%
Saturday
May 29

Clear
90 °F
72 °F
0%
58%
Sunday
May 30

Clouds
90 °F
70 °F
0%
57%
Monday
May 31

Clouds
90 °F
68 °F
0%
54%

Temperature 8-14 Day Outlook



Precipitation 8-14 Day Outlook




Quick Links
Lake Somerville News
Lake Somerville Photos
Lake Somerville Videos




About Us
Contact Us
Site Map
Search Site
Advertise With Us
   
Somerville.LakesOnline.com
THE LAKE SOMERVILLE WEBSITE

Copyright 2021, Lakes Online
Privacy    |    Legal